SCP
0 0 0 1 1 1 1 1 1 1 0 0 0 0 0 0 0 0 0 0 -0 0 0 0 0 0 0 0 0 0 0 0 0 0 0 0 0 0 0 0 0 0 0
1 0 0 1 1 1 1 1 1 1 0 0 0 0 0 0 0 0 0 0 0 0 0 0 0 0 0 0 0 0 0 0 0 0 0 0 0 0 0 0 0 0 0
1 1 1 1 1 1 1 1 1 1 0 0 0 0 0 0 0 0 0 0 0 0 0 0 0 0 0 0 0 0 0 0 0 0 0 0 0 0 0 0 0 0 0
0 1 1 1 1 1 1 1 1 1 0 0 0 0 0 0 1 1 0 0 0 0 0 0 0 0 0 0 0 0 0 0 0 0 0 0 0 0 0 0 0 0 0
0 0 0 0 0 0 0 1 1 0 0 0 0 0 0 0 0 0 0 0 0 0 0 0 0 0 0 0 0 0 0 0 0 0 0 0 0 0 0 0 0 0 0
0 0 0 0 0 0 0 0 1 1 0 0 0 0 0 0 0 0 0 0 0 0 0 0 0 0 0 0 0 0 0 0 0 0 0 0 0 0 0 0 0 0 0
0 0 0 0 0 0 0 0 0 0 1 0 0 0 0 0 0 0 0 0 0 0 0 0 0 0 0 0 0 0 0 0 0 0 0 0 0 0 0 0 0 0 0
0 0 0 0 0 0 0 0 0 0 0 0 1 1 0 0 0 0 0 0 0 0 0 0 0 0 0 0 -0 0 0 0 0 0 0 0 0 0 0 0 0 0 0
0 0 0 0 0 0 0 0 0 1 0 0 0 0 1 1 1 0 0 0 0 0 0 -0 0 -0 -0 -0 -0 0 0 0 0 0 0 0 0 0 0 0 0 0 0
0 0 0 1 1 1 1 1 1 0 0 0 0 0 0 0 0 0 0 0 0 0 0 0 -0 -0 -0 -0 0 0 0 0 0 0 0 0 0 0 0 0 0 0 0
0 0 0 0 0 0 1 1 1 1 1 1 0 0 0 0 0 0 0 0 0 0 0 0 0 0 0 0 0 0 0 0 0 0 0 0 0 0 0 0 0 0 0
0 0 0 0 0 1 1 1 1 1 1 0 0 0 0 0 0 0 0 0 0 0 0 0 0 0 0 -0 0 0 0 0 0 0 0 0 0 0 0 0 0 0 0
0 0 0 0 0 0 0 0 0 0 0 0 0 0 0 0 0 0 0 0 0 0 0 0 0 0 0 0 0 0 0 0 0 0 0 0 0 0 0 0 0 0 0
0 0 0 0 0 0 0 0 0 0 0 0 0 0 0 0 0 0 0 0 0 0 0 0 0 0 0 0 0 0 0 0 0 0 0 0 0 0 0 0 0 0 0
0 0 0 0 0 0 0 0 0 0 0 0 0 0 0 0 0 0 0 0 0 0 0 0 0 0 0 0 0 0 0 0 0 0 0 0 0 0 0 0 0 0 0
0 0 0 0 0 0 0 0 0 0 0 0 0 0 0 0 0 0 0 0 0 0 0 0 0 0 0 0 0 0 0 0 0 0 0 0 0 0 0 0 0 0 0
0 0 0 0 0 0 0 0 0 0 0 0 0 0 0 0 0 0 0 0 0 0 0 0 0 0 0 0 1 0 0 0 0 0 0 0 0 0 0 0 0 0 0
0 0 0 0 0 0 0 0 0 0 0 0 0 0 0 0 0 0 0 0 0 0 0 0 0 0 0 0 0 1 0 0 0 0 0 0 0 0 0 0 0 0 0
0 0 0 0 0 0 0 0 0 0 0 0 0 0 0 0 0 0 0 0 0 0 0 0 0 0 0 0 0 0 0 0 0 0 0 0 0 0 0 0 0 0 0
0 0 0 -0 0 0 0 0 0 0 0 0 0 0 0 0 0 0 0 0 0 0 0 0 0 0 0 0 0 0 0 0 0 0 0 0 0 0 0 0 0 0 0
0 0 0 0 -0 0 0 0 0 0 0 0 0 0 0 0 0 0 0 0 0 0 0 0 0 0 0 0 0 0 0 0 0 0 0 0 0 0 0 0 0 0 0
0 0 0 0 0 -0 -0 0 0 0 -0 0 0 0 0 0 0 0 0 0 0 0 0 0 0 0 0 0 0 0 0 0 0 0 0 1 0 0 0 0 0 0 0
0 0 -0 -0 0 -0 0 0 0 0 0 0 0 0 0 0 0 0 0 0 0 0 0 0 0 0 0 0 0 0 0 0 0 0 0 0 1 1 0 0 0 0 0
0 -0 -0 -0 0 0 0 0 0 0 0 0 0 0 0 0 0 0 0 0 0 0 0 0 0 0 0 0 0 0 0 0 0 0 0 0 1 0 0 0 0 0 0
0 0 -0 -0 -0 0 0 0 0 0 0 0 0 0 0 0 0 0 0 0 0 0 0 0 0 0 0 0 0 0 0 0 0 0 0 0 0 0 0 0 0 0 0
0 0 0 0 0 0 0 0 0 0 0 0 0 0 0 0 0 0 0 0 0 0 0 0 0 0 0 0 0 0 0 0 0 0 0 0 0 0 0 0 0 0 0
Wind_Speed_500mb
16 24 35 35 34 37 34 35 43 40 40 42 40 38 8 34 37 33 38 29 46 47 47 52 55 57 59 58 54 56 58 48 50 45 38 34 40 41 36 37 36 33 34
17 25 26 27 33 42 43 39 35 34 30 36 41 37 36 38 32 36 44 36 45 51 46 49 57 56 62 64 58 56 66 54 55 52 44 41 43 38 41 42 40 45 43
19 20 21 30 31 36 41 45 37 34 34 34 44 48 46 29 31 37 39 43 39 38 39 42 47 57 65 67 70 61 66 58 54 52 51 46 38 29 37 43 40 35 35
26 19 19 23 24 21 26 32 32 29 26 24 25 30 32 34 37 37 37 39 36 31 31 39 42 49 58 60 63 62 60 68 58 55 53 49 40 29 27 40 34 33 29
21 21 21 24 27 24 21 22 24 22 20 21 24 22 27 30 32 33 34 38 38 37 34 29 30 31 42 54 56 66 61 64 70 58 59 60 54 41 38 37 41 31 32
20 14 17 21 26 29 25 22 22 22 16 15 15 11 20 17 17 27 37 45 35 33 42 36 29 30 37 43 52 62 57 62 66 66 61 59 53 52 40 38 37 39 39
29 33 37 40 41 38 36 36 34 30 29 24 21 20 23 22 20 23 31 42 41 32 31 39 19 26 39 42 44 54 61 61 67 65 64 59 57 48 37 32 27 29 34
35 34 33 36 43 47 51 50 49 46 41 42 43 40 38 36 29 31 37 35 41 33 39 49 37 25 35 39 51 65 62 58 58 65 60 58 54 42 45 39 36 36 38
44 43 42 44 47 48 50 51 51 52 51 48 50 53 53 54 46 43 43 44 41 38 32 35 34 13 12 29 44 36 43 43 55 57 47 60 52 51 48 44 45 40 45
47 50 50 45 47 52 54 56 53 55 54 53 55 56 59 64 57 55 48 53 54 50 48 43 33 20 14 24 32 39 58 53 48 54 49 58 53 50 47 44 48 53 54
41 42 42 47 51 55 56 59 62 62 61 62 61 58 58 56 57 56 58 59 62 61 57 54 53 36 31 33 21 43 52 50 51 51 57 53 51 55 58 54 56 59 57
49 52 58 62 62 61 63 63 65 68 69 68 63 61 64 61 58 56 54 64 76 74 71 67 64 57 49 30 41 49 49 48 51 50 57 57 53 54 52 49 49 52 55
58 65 70 70 70 71 68 66 68 67 70 69 67 66 61 57 57 56 59 58 55 60 64 67 67 70 61 59 71 53 45 49 54 57 53 62 60 60 57 57 58 56 54
58 63 64 64 67 66 66 66 68 70 66 68 67 64 53 46 45 45 45 50 52 58 60 69 67 73 72 70 56 59 47 58 58 65 64 65 65 61 56 59 58 57 62
57 61 63 63 62 63 57 56 60 61 59 61 61 54 51 47 46 41 43 37 36 36 45 46 52 65 69 67 63 56 61 62 61 63 65 67 70 68 63 56 54 55 61
66 63 61 61 56 57 57 59 57 59 57 51 49 50 50 51 48 51 54 54 58 60 60 48 47 48 66 61 63 59 54 63 62 65 55 61 60 57 62 60 60 57 56
60 58 57 59 58 55 55 53 58 54 56 56 51 50 53 54 50 54 53 48 58 61 61 57 52 43 50 52 54 46 39 42 52 63 62 56 52 56 56 56 59 59 59
62 57 54 49 48 47 50 50 46 49 46 44 46 47 47 51 51 45 46 52 52 61 61 62 58 54 50 48 51 50 41 35 38 48 58 58 59 60 59 61 61 62 63
62 60 51 46 44 39 42 37 36 34 36 41 42 39 38 36 49 47 49 52 60 57 54 58 62 60 59 61 58 53 50 47 41 43 49 55 62 65 64 65 59 58 59
70 56 43 35 29 36 33 36 39 41 42 42 40 38 31 36 41 44 54 56 55 55 54 55 55 56 56 57 65 65 66 60 52 53 53 52 54 57 62 66 66 65 69
53 41 23 17 21 27 30 27 30 34 33 33 34 32 31 36 39 40 43 50 52 55 55 51 51 55 56 56 52 59 63 66 62 62 67 68 63 61 59 55 55 50 54
52 46 48 47 37 32 29 28 25 25 32 39 41 31 35 43 44 43 45 44 51 49 51 53 54 51 52 46 47 54 61 67 69 69 75 76 74 66 61 60 56 53 54
54 52 45 39 38 35 32 30 28 30 28 27 28 34 30 30 40 39 39 44 48 53 53 58 60 55 54 55 54 51 51 58 61 60 68 79 76 63 57 59 58 57 52
69 58 50 45 40 38 38 33 29 31 23 21 23 25 34 37 40 34 41 45 42 46 52 48 48 56 59 59 57 57 51 56 56 55 53 61 65 62 63 65 66 61 49
80 88 86 76 63 50 42 38 33 31 26 23 20 22 21 27 27 31 31 28 32 36 42 47 51 55 51 49 47 53 61 57 50 61 54 55 59 60 57 60 61 56 53
68 69 70 75 78 78 76 68 56 43 34 29 26 18 11 12 15 17 19 24 30 32 35 37 44 53 49 50 55 53 50 58 55 45 59 65 60 54 63 66 62 59 58
Wind_Direction_500mb
290 261 253 266 268 266 267 269 260 260 261 258 248 243 270 282 246 252 251 270 261 260 270 267 263 259 254 248 245 244 244 248 253 253 247 246 245 253 247 238 226 237 235
256 276 287 277 277 266 272 273 272 263 261 272 261 256 271 252 253 266 251 260 268 264 261 262 257 252 250 247 246 247 242 242 247 249 252 255 245 246 236 233 231 246 241
300 303 294 289 276 270 271 275 270 274 285 276 261 253 277 262 261 263 247 255 259 261 257 256 262 248 245 246 247 248 242 240 243 246 248 255 260 252 239 232 244 232 227
320 305 288 298 298 298 282 277 288 292 296 295 286 273 278 259 256 251 255 258 267 278 275 268 261 249 244 244 245 243 243 240 244 240 245 247 237 256 251 229 230 233 236
326 301 304 317 320 316 320 306 307 307 310 288 281 278 278 271 268 262 259 261 275 277 278 266 259 247 240 241 241 241 242 243 243 238 241 242 245 237 236 226 235 241 242
278 277 286 295 301 302 297 294 302 315 324 327 351 293 281 289 269 269 265 273 290 295 265 242 250 255 247 234 239 240 233 243 241 240 242 241 245 242 235 240 247 244 251
275 286 294 299 301 300 297 295 298 295 299 304 303 298 296 302 298 287 276 266 277 281 262 249 255 290 258 253 241 233 237 237 244 244 239 242 243 228 227 234 240 244 256
275 275 279 282 292 298 299 300 302 298 290 289 290 291 287 286 288 285 283 281 272 277 278 276 280 291 262 276 252 236 235 234 236 242 237 237 234 233 235 249 256 260 263
287 285 284 287 287 290 289 293 298 297 295 295 293 287 282 277 276 274 275 271 272 262 291 261 302 292 292 293 269 259 228 232 237 232 237 230 234 236 240 247 248 256 263
288 285 281 277 281 282 279 279 285 284 285 291 294 288 282 277 274 265 259 266 263 260 263 262 256 247 299 278 280 255 238 230 230 228 230 225 231 231 233 240 243 252 259
291 288 283 277 272 273 273 271 271 276 279 279 283 285 284 273 268 266 253 249 253 257 263 268 262 257 246 263 254 250 240 229 235 233 233 233 235 237 239 242 246 249 252
291 286 287 284 282 282 280 277 272 272 274 276 278 280 280 271 265 267 261 255 252 261 266 268 272 260 258 256 248 257 240 239 237 237 237 235 239 241 237 238 242 251 255
292 287 287 287 286 285 281 277 274 268 265 266 272 277 276 272 270 266 256 258 251 261 266 269 274 275 271 262 257 262 253 245 240 238 233 238 240 244 242 243 248 253 257
306 301 296 291 287 281 275 278 272 270 263 264 271 273 270 272 271 262 253 259 269 270 270 270 273 267 267 270 260 242 250 249 246 244 241 240 245 250 249 247 250 254 259
311 309 307 302 295 289 285 280 275 273 269 264 272 268 265 270 263 273 261 263 249 270 293 296 276 265 260 263 267 261 249 242 248 246 250 249 247 244 242 243 251 257 256
308 308 308 308 303 297 296 289 277 273 271 261 262 265 267 268 268 264 259 255 267 279 283 289 291 274 255 254 273 276 266 257 249 250 257 254 249 247 241 244 250 251 255
306 300 299 306 301 300 299 289 287 278 264 262 262 258 257 259 265 265 260 261 266 268 269 273 279 280 263 253 262 271 274 264 260 256 255 254 255 252 251 249 250 251 256
313 302 289 292 304 306 304 294 289 277 271 263 256 260 257 261 253 253 255 264 266 264 266 269 269 265 265 268 260 259 265 273 273 259 251 250 256 255 252 254 254 255 258
326 320 312 287 285 304 300 291 286 281 273 274 278 269 261 265 245 248 252 263 259 262 270 272 265 261 261 262 258 262 262 264 267 268 252 248 254 256 258 259 257 259 259
334 328 319 301 294 307 304 286 285 286 284 274 272 274 278 267 258 255 261 262 265 263 271 268 260 258 261 265 261 254 257 259 256 257 257 253 252 256 259 258 257 262 262
347 345 347 11 356 344 332 317 297 291 290 284 280 285 282 275 268 265 261 257 261 254 261 267 267 265 265 264 265 256 250 252 254 256 253 251 249 256 254 255 263 263 269
22 24 27 32 21 11 354 336 325 305 295 302 289 287 293 274 267 269 275 267 259 259 261 263 263 267 262 263 271 261 256 251 249 254 252 249 252 256 255 256 258 264 274
21 21 19 10 1 358 350 342 331 316 306 312 314 294 287 281 281 280 282 285 279 265 265 261 257 259 265 269 267 269 262 258 253 258 257 251 249 249 252 254 256 265 272
35 29 19 12 9 10 9 3 349 340 327 307 310 312 303 289 286 288 282 276 275 271 268 266 261 258 263 268 270 263 269 267 256 261 258 250 250 248 259 252 253 257 262
41 41 38 34 28 21 16 8 2 358 346 342 328 326 330 319 289 272 279 280 272 269 269 265 263 261 265 263 255 271 259 254 258 251 253 246 247 246 248 249 245 248 254
39 40 41 40 38 39 41 39 32 23 16 7 354 343 2 9 357 337 309 285 276 269 263 263 256 251 249 255 261 268 259 250 247 251 245 247 250 247 242 242 244 249 255
Wind_Speed_850mb
16 24 35 35 34 37 34 35 43 40 40 42 40 38 8 34 37 33 38 29 46 47 47 52 55 57 59 58 54 56 58 48 50 45 38 34 40 41 36 37 36 33 34
17 25 26 27 33 42 43 39 35 34 30 36 41 37 36 38 32 36 44 36 45 51 46 49 57 56 62 64 58 56 66 54 55 52 44 41 43 38 41 42 40 45 43
19 20 21 30 31 36 41 45 37 34 34 34 44 48 46 29 31 37 39 43 39 38 39 42 47 57 65 67 70 61 66 58 54 52 51 46 38 29 37 43 40 35 35
26 19 19 23 24 21 26 32 32 29 26 24 25 30 32 34 37 37 37 39 36 31 31 39 42 49 58 60 63 62 60 68 58 55 53 49 40 29 27 40 34 33 29
21 21 21 24 27 24 21 22 24 22 20 21 24 22 27 30 32 33 34 38 38 37 34 29 30 31 42 54 56 66 61 64 70 58 59 60 54 41 38 37 41 31 32
20 14 17 21 26 29 25 22 22 22 16 15 15 11 20 17 17 27 37 45 35 33 42 36 29 30 37 43 52 62 57 62 66 66 61 59 53 52 40 38 37 39 39
29 33 37 40 41 38 36 36 34 30 29 24 21 20 23 22 20 23 31 42 41 32 31 39 19 26 39 42 44 54 61 61 67 65 64 59 57 48 37 32 27 29 34
35 34 33 36 43 47 51 50 49 46 41 42 43 40 38 36 29 31 37 35 41 33 39 49 37 25 35 39 51 65 62 58 58 65 60 58 54 42 45 39 36 36 38
44 43 42 44 47 48 50 51 51 52 51 48 50 53 53 54 46 43 43 44 41 38 32 35 34 13 12 29 44 36 43 43 55 57 47 60 52 51 48 44 45 40 45
47 50 50 45 47 52 54 56 53 55 54 53 55 56 59 64 57 55 48 53 54 50 48 43 33 20 14 24 32 39 58 53 48 54 49 58 53 50 47 44 48 53 54
41 42 42 47 51 55 56 59 62 62 61 62 61 58 58 56 57 56 58 59 62 61 57 54 53 36 31 33 21 43 52 50 51 51 57 53 51 55 58 54 56 59 57
49 52 58 62 62 61 63 63 65 68 69 68 63 61 64 61 58 56 54 64 76 74 71 67 64 57 49 30 41 49 49 48 51 50 57 57 53 54 52 49 49 52 55
58 65 70 70 70 71 68 66 68 67 70 69 67 66 61 57 57 56 59 58 55 60 64 67 67 70 61 59 71 53 45 49 54 57 53 62 60 60 57 57 58 56 54
58 63 64 64 67 66 66 66 68 70 66 68 67 64 53 46 45 45 45 50 52 58 60 69 67 73 72 70 56 59 47 58 58 65 64 65 65 61 56 59 58 57 62
57 61 63 63 62 63 57 56 60 61 59 61 61 54 51 47 46 41 43 37 36 36 45 46 52 65 69 67 63 56 61 62 61 63 65 67 70 68 63 56 54 55 61
66 63 61 61 56 57 57 59 57 59 57 51 49 50 50 51 48 51 54 54 58 60 60 48 47 48 66 61 63 59 54 63 62 65 55 61 60 57 62 60 60 57 56
60 58 57 59 58 55 55 53 58 54 56 56 51 50 53 54 50 54 53 48 58 61 61 57 52 43 50 52 54 46 39 42 52 63 62 56 52 56 56 56 59 59 59
62 57 54 49 48 47 50 50 46 49 46 44 46 47 47 51 51 45 46 52 52 61 61 62 58 54 50 48 51 50 41 35 38 48 58 58 59 60 59 61 61 62 63
62 60 51 46 44 39 42 37 36 34 36 41 42 39 38 36 49 47 49 52 60 57 54 58 62 60 59 61 58 53 50 47 41 43 49 55 62 65 64 65 59 58 59
70 56 43 35 29 36 33 36 39 41 42 42 40 38 31 36 41 44 54 56 55 55 54 55 55 56 56 57 65 65 66 60 52 53 53 52 54 57 62 66 66 65 69
53 41 23 17 21 27 30 27 30 34 33 33 34 32 31 36 39 40 43 50 52 55 55 51 51 55 56 56 52 59 63 66 62 62 67 68 63 61 59 55 55 50 54
52 46 48 47 37 32 29 28 25 25 32 39 41 31 35 43 44 43 45 44 51 49 51 53 54 51 52 46 47 54 61 67 69 69 75 76 74 66 61 60 56 53 54
54 52 45 39 38 35 32 30 28 30 28 27 28 34 30 30 40 39 39 44 48 53 53 58 60 55 54 55 54 51 51 58 61 60 68 79 76 63 57 59 58 57 52
69 58 50 45 40 38 38 33 29 31 23 21 23 25 34 37 40 34 41 45 42 46 52 48 48 56 59 59 57 57 51 56 56 55 53 61 65 62 63 65 66 61 49
80 88 86 76 63 50 42 38 33 31 26 23 20 22 21 27 27 31 31 28 32 36 42 47 51 55 51 49 47 53 61 57 50 61 54 55 59 60 57 60 61 56 53
68 69 70 75 78 78 76 68 56 43 34 29 26 18 11 12 15 17 19 24 30 32 35 37 44 53 49 50 55 53 50 58 55 45 59 65 60 54 63 66 62 59 58
Wind_Direction_850mb
290 261 253 266 268 266 267 269 260 260 261 258 248 243 270 282 246 252 251 270 261 260 270 267 263 259 254 248 245 244 244 248 253 253 247 246 245 253 247 238 226 237 235
256 276 287 277 277 266 272 273 272 263 261 272 261 256 271 252 253 266 251 260 268 264 261 262 257 252 250 247 246 247 242 242 247 249 252 255 245 246 236 233 231 246 241
300 303 294 289 276 270 271 275 270 274 285 276 261 253 277 262 261 263 247 255 259 261 257 256 262 248 245 246 247 248 242 240 243 246 248 255 260 252 239 232 244 232 227
320 305 288 298 298 298 282 277 288 292 296 295 286 273 278 259 256 251 255 258 267 278 275 268 261 249 244 244 245 243 243 240 244 240 245 247 237 256 251 229 230 233 236
326 301 304 317 320 316 320 306 307 307 310 288 281 278 278 271 268 262 259 261 275 277 278 266 259 247 240 241 241 241 242 243 243 238 241 242 245 237 236 226 235 241 242
278 277 286 295 301 302 297 294 302 315 324 327 351 293 281 289 269 269 265 273 290 295 265 242 250 255 247 234 239 240 233 243 241 240 242 241 245 242 235 240 247 244 251
275 286 294 299 301 300 297 295 298 295 299 304 303 298 296 302 298 287 276 266 277 281 262 249 255 290 258 253 241 233 237 237 244 244 239 242 243 228 227 234 240 244 256
275 275 279 282 292 298 299 300 302 298 290 289 290 291 287 286 288 285 283 281 272 277 278 276 280 291 262 276 252 236 235 234 236 242 237 237 234 233 235 249 256 260 263
287 285 284 287 287 290 289 293 298 297 295 295 293 287 282 277 276 274 275 271 272 262 291 261 302 292 292 293 269 259 228 232 237 232 237 230 234 236 240 247 248 256 263
288 285 281 277 281 282 279 279 285 284 285 291 294 288 282 277 274 265 259 266 263 260 263 262 256 247 299 278 280 255 238 230 230 228 230 225 231 231 233 240 243 252 259
291 288 283 277 272 273 273 271 271 276 279 279 283 285 284 273 268 266 253 249 253 257 263 268 262 257 246 263 254 250 240 229 235 233 233 233 235 237 239 242 246 249 252
291 286 287 284 282 282 280 277 272 272 274 276 278 280 280 271 265 267 261 255 252 261 266 268 272 260 258 256 248 257 240 239 237 237 237 235 239 241 237 238 242 251 255
292 287 287 287 286 285 281 277 274 268 265 266 272 277 276 272 270 266 256 258 251 261 266 269 274 275 271 262 257 262 253 245 240 238 233 238 240 244 242 243 248 253 257
306 301 296 291 287 281 275 278 272 270 263 264 271 273 270 272 271 262 253 259 269 270 270 270 273 267 267 270 260 242 250 249 246 244 241 240 245 250 249 247 250 254 259
311 309 307 302 295 289 285 280 275 273 269 264 272 268 265 270 263 273 261 263 249 270 293 296 276 265 260 263 267 261 249 242 248 246 250 249 247 244 242 243 251 257 256
308 308 308 308 303 297 296 289 277 273 271 261 262 265 267 268 268 264 259 255 267 279 283 289 291 274 255 254 273 276 266 257 249 250 257 254 249 247 241 244 250 251 255
306 300 299 306 301 300 299 289 287 278 264 262 262 258 257 259 265 265 260 261 266 268 269 273 279 280 263 253 262 271 274 264 260 256 255 254 255 252 251 249 250 251 256
313 302 289 292 304 306 304 294 289 277 271 263 256 260 257 261 253 253 255 264 266 264 266 269 269 265 265 268 260 259 265 273 273 259 251 250 256 255 252 254 254 255 258
326 320 312 287 285 304 300 291 286 281 273 274 278 269 261 265 245 248 252 263 259 262 270 272 265 261 261 262 258 262 262 264 267 268 252 248 254 256 258 259 257 259 259
334 328 319 301 294 307 304 286 285 286 284 274 272 274 278 267 258 255 261 262 265 263 271 268 260 258 261 265 261 254 257 259 256 257 257 253 252 256 259 258 257 262 262
347 345 347 11 356 344 332 317 297 291 290 284 280 285 282 275 268 265 261 257 261 254 261 267 267 265 265 264 265 256 250 252 254 256 253 251 249 256 254 255 263 263 269
22 24 27 32 21 11 354 336 325 305 295 302 289 287 293 274 267 269 275 267 259 259 261 263 263 267 262 263 271 261 256 251 249 254 252 249 252 256 255 256 258 264 274
21 21 19 10 1 358 350 342 331 316 306 312 314 294 287 281 281 280 282 285 279 265 265 261 257 259 265 269 267 269 262 258 253 258 257 251 249 249 252 254 256 265 272
35 29 19 12 9 10 9 3 349 340 327 307 310 312 303 289 286 288 282 276 275 271 268 266 261 258 263 268 270 263 269 267 256 261 258 250 250 248 259 252 253 257 262
41 41 38 34 28 21 16 8 2 358 346 342 328 326 330 319 289 272 279 280 272 269 269 265 263 261 265 263 255 271 259 254 258 251 253 246 247 246 248 249 245 248 254
39 40 41 40 38 39 41 39 32 23 16 7 354 343 2 9 357 337 309 285 276 269 263 263 256 251 249 255 261 268 259 250 247 251 245 247 250 247 242 242 244 249 255